Theta_e
330 333 335 334 336 336 336 336 337 339 341 343 345 351 353 356 358 351 352 352 351 351 348 351 357 356 354 357 355 350 356 357 354
334 335 335 337 336 337 338 338 339 341 345 347 348 348 352 353 354 354 353 357 355 353 354 353 355 355 354 354 355 351 354 356 355
333 336 337 337 334 336 339 339 342 342 344 346 347 346 349 350 352 353 354 355 354 356 355 356 356 355 354 353 353 354 353 354 357
334 335 337 338 340 340 341 341 342 341 343 345 346 348 349 351 351 352 353 352 354 356 357 357 356 356 355 355 354 350 351 349 349
334 335 338 339 341 342 341 343 343 344 345 346 346 348 350 349 351 352 351 352 353 356 356 358 357 357 356 356 354 353 353 348 346
334 335 338 338 339 339 340 341 342 344 347 348 348 349 348 349 349 351 351 352 354 355 356 357 357 358 357 358 358 353 352 351 346
334 334 336 337 337 338 339 341 342 345 346 348 349 349 349 349 350 352 352 354 356 356 359 359 359 359 359 359 359 357 357 349 349
333 334 335 335 336 337 340 341 342 343 342 347 351 351 351 352 354 356 355 356 357 357 359 359 361 360 358 358 357 355 355 353 349
333 333 335 336 338 338 339 339 340 341 343 343 344 345 348 353 353 354 354 354 351 351 353 353 354 355 357 357 356 345 344 353 353
334 334 335 335 338 341 342 343 342 343 345 347 348 348 350 349 350 354 353 351 348 346 345 344 343 344 345 345 352 338 339 344 354
332 333 334 337 339 341 342 344 345 343 342 346 346 347 348 350 351 350 352 349 345 345 344 344 343 342 342 343 345 336 335 340 351
333 333 335 337 341 341 341 339 341 340 340 341 342 340 341 345 347 348 350 348 348 347 344 343 343 343 343 343 344 332 330 337 349
331 332 332 333 338 338 338 339 339 335 332 332 332 336 338 341 345 345 346 347 346 347 345 341 339 340 342 336 342 331 327 333 347
329 327 327 336 335 331 333 334 332 328 329 327 330 333 335 337 341 343 345 346 347 346 343 341 338 339 342 344 343 343 324 325 340
324 326 329 329 327 324 326 329 329 328 326 327 329 331 331 333 335 336 339 343 344 342 341 340 337 336 335 337 341 331 328 322 327
324 325 327 326 324 324 325 327 326 324 324 325 325 325 324 325 328 330 333 335 336 336 339 338 338 336 334 336 339 341 327 322 321
324 325 324 323 323 324 325 325 324 322 323 324 324 322 322 323 323 322 325 327 329 329 330 334 337 337 337 336 340 343 346 340 332
325 324 322 324 324 324 323 322 322 323 323 323 321 321 321 321 321 322 323 322 322 324 329 328 330 333 337 338 337 340 332 334 341
324 322 324 324 324 321 320 321 321 322 323 323 322 320 320 319 317 318 320 321 321 315 312 310 307 304 312 332 320 311 307 307 304
318 324 323 322 320 319 320 320 321 323 324 324 323 321 320 318 316 316 315 319 319 318 318 312 310 305 301 301 304 302 302 305 302
Wind_Speed
3 8 12 16 19 19 19 18 19 18 14 13 16 16 17 15 15 12 10 12 10 8 8 9 8 9 7 9 6 6 9 8 10
6 3 4 9 14 18 18 17 17 15 13 12 14 17 13 14 14 15 13 13 11 9 9 7 8 9 11 9 8 9 7 8 11
8 8 6 7 1 9 12 12 12 13 14 14 13 14 13 12 14 15 14 12 13 12 11 10 9 10 10 10 8 8 8 9 10
6 6 7 8 7 6 4 6 8 11 11 12 12 12 12 14 14 15 14 14 14 14 12 11 11 11 11 12 11 10 11 7 3
2 2 8 8 10 10 9 8 7 8 10 12 13 13 13 14 13 13 14 15 15 12 13 11 11 11 12 13 12 13 13 12 9
3 3 8 8 11 10 8 7 6 6 8 9 11 12 13 13 13 14 15 13 12 12 11 11 11 11 12 13 12 10 12 11 12
4 4 7 8 9 8 6 4 3 3 4 7 9 9 10 9 11 11 11 12 13 13 12 12 12 13 13 14 13 14 14 11 8
4 4 6 7 7 5 2 1 1 3 4 2 3 6 7 8 7 8 9 10 11 12 13 14 15 15 14 14 13 11 16 16 15
7 6 7 7 6 6 6 5 3 4 5 5 3 2 5 7 7 8 11 12 13 12 12 13 13 13 14 14 11 16 19 17 16
10 9 8 8 9 7 8 8 5 5 6 6 6 5 5 4 7 9 10 10 10 12 10 6 7 7 7 9 9 5 13 21 14
10 8 7 6 6 7 8 9 7 5 6 6 6 7 8 8 5 6 8 10 12 12 10 11 10 9 9 9 9 10 13 15 12
7 7 6 6 6 7 7 8 6 6 6 6 7 9 11 12 12 11 9 9 10 9 8 10 11 11 12 12 12 11 10 10 7
5 4 5 4 6 7 7 6 5 8 8 7 6 7 8 10 11 11 11 11 12 10 9 10 9 11 10 10 13 11 11 11 5
4 5 6 7 9 9 8 7 7 8 6 7 4 5 6 7 8 11 13 13 11 11 11 10 10 9 8 11 10 8 8 12 5
4 4 6 7 8 8 7 8 8 8 9 10 8 5 4 7 8 7 7 9 9 9 9 9 10 10 11 11 12 12 10 12 14
4 3 5 6 5 5 6 7 8 8 9 10 10 10 10 9 8 8 8 8 9 8 9 9 9 9 11 13 12 12 11 12 15
5 4 4 4 3 6 7 8 7 5 6 8 9 10 11 10 10 9 8 7 7 7 7 7 8 8 10 9 7 10 8 6 7
5 5 4 5 6 6 8 9 9 8 7 6 6 7 8 10 9 9 9 8 8 8 9 8 9 9 9 10 9 6 6 6 5
6 4 4 4 6 7 9 8 9 9 8 7 7 7 6 6 8 8 9 8 9 8 12 12 10 12 10 12 12 10 4 9 10
6 6 5 5 6 8 8 9 8 9 9 9 9 8 7 6 6 7 8 10 10 10 9 11 11 10 3 7 15 10 8 8 3
Wind_Direction
215 228 231 236 232 226 222 216 210 206 200 210 202 201 210 209 211 219 223 223 226 217 227 227 217 214 223 220 180 166 234 211 215
61 29 299 269 235 224 224 211 208 200 201 201 208 213 210 214 215 216 218 220 216 215 222 222 210 208 217 212 189 175 219 215 214
8 7 17 24 351 226 218 208 200 192 202 205 207 215 212 219 222 220 223 217 219 216 218 209 199 210 216 217 194 189 211 224 213
349 354 33 41 46 63 116 159 179 195 201 205 206 211 216 216 215 217 214 220 219 215 213 213 211 209 211 207 195 179 219 217 274
4 348 59 63 66 72 87 115 146 176 195 202 207 212 209 215 216 219 217 224 218 218 216 204 208 211 219 218 193 183 209 190 186
87 61 79 75 72 65 65 84 109 145 189 207 215 209 217 225 220 213 218 220 219 211 214 213 216 213 220 226 218 191 186 200 193
92 50 66 70 79 76 70 72 92 139 198 214 218 228 229 232 231 227 225 218 207 211 206 202 204 214 221 227 222 206 202 189 194
124 79 57 55 61 76 107 123 306 320 344 360 289 241 238 233 243 230 222 208 205 200 204 209 200 199 210 215 223 221 197 187 190
129 82 72 71 52 41 45 49 16 359 332 325 302 292 263 238 235 219 211 204 199 195 192 192 194 194 197 204 211 210 195 195 196
106 99 95 81 61 45 38 37 37 32 2 355 2 344 321 286 262 241 232 219 206 209 210 229 237 259 248 243 257 248 219 198 217
118 115 100 84 78 67 51 50 55 17 14 22 10 354 343 342 327 282 256 225 225 231 237 250 258 252 244 234 229 201 229 216 208
121 105 98 82 70 71 61 64 67 69 47 16 9 350 334 325 322 318 310 286 269 258 252 259 257 256 250 243 237 215 208 214 198
153 117 94 96 79 67 63 63 73 83 78 60 27 349 323 314 303 298 297 292 292 294 287 287 288 277 267 264 263 226 195 182 183
127 99 83 86 80 73 61 55 61 58 66 58 21 333 324 317 304 294 289 289 285 286 288 290 285 272 259 264 256 264 176 181 185
121 105 98 97 98 85 62 44 40 33 18 354 351 352 338 331 327 312 301 289 287 281 279 270 268 265 269 267 273 265 251 192 199
155 120 85 73 72 80 76 48 33 22 3 348 345 342 344 341 329 320 320 308 300 288 271 267 261 254 256 267 278 277 267 239 207
162 124 104 68 45 31 31 29 30 27 6 350 343 340 341 341 335 334 316 303 294 291 285 265 258 250 250 257 260 267 261 247 224
163 141 107 58 32 14 9 4 1 3 358 347 341 332 336 340 335 322 313 306 303 295 284 283 288 275 273 275 264 260 246 252 206
155 139 97 50 23 7 0 358 350 351 349 341 328 319 323 334 333 330 322 312 307 278 267 279 271 271 265 280 263 302 286 264 267
128 124 80 41 16 6 360 352 348 349 343 335 318 311 312 328 323 328 322 322 321 315 308 280 279 275 306 261 263 285 251 242 220